EST,Max TemperatureF,Mean TemperatureF,Min TemperatureF,Max Dew PointF,MeanDew PointF,Min DewpointF,Max Humidity, Mean Humidity, Min Humidity, Max Sea Level PressureIn, Mean Sea Level PressureIn, Min Sea Level PressureIn, Max VisibilityMiles, Mean VisibilityMiles, Min VisibilityMiles, Max Wind SpeedMPH, Mean Wind SpeedMPH, Max Gust SpeedMPH,PrecipitationIn, CloudCover, Events, WindDirDegrees
2012-11-1,72,57,42,45,34,20,92,53,14,30.01,29.95,29.90,10,10,8,17,6,23,0.00,0,,276
2012-11-2,78,58,38,51,42,35,85,57,29,30.06,30.00,29.95,10,10,10,17,5,24,0.00,0,,248
2012-11-3,84,66,47,59,51,46,100,68,36,30.12,30.05,30.01,10,6,0,10,2,16,0.00,0,Fog,294
2012-11-4,85,72,58,63,59,55,97,69,40,30.07,30.02,29.94,10,6,0,16,5,21,0.00,1,Fog,235
2012-11-5,71,62,52,55,48,44,83,62,40,30.04,29.99,29.96,10,10,8,13,5,16,0.00,1,,24
2012-11-6,69,56,43,54,49,39,100,75,49,29.98,29.92,29.85,10,8,2,17,6,24,0.00,5,Rain,358
2012-11-7,61,51,40,47,41,38,93,70,47,30.02,29.95,29.87,10,8,5,21,4,25,0.01,6,,310
2012-11-8,66,52,38,43,40,36,96,65,34,30.19,30.11,30.02,10,8,2,12,4,16,0.00,0,,322
2012-11-9,71,53,34,43,36,30,100,62,24,30.30,30.24,30.18,10,7,1,9,1,15,0.00,0,,295
2012-11-10,75,55,35,48,39,32,100,61,22,30.37,30.32,30.27,10,6,1,9,2,13,0.00,0,,121
2012-11-11,77,61,45,57,53,42,93,68,43,30.39,30.33,30.30,10,9,5,14,4,20,0.00,2,,92
2012-11-12,77,66,55,65,60,54,100,82,64,30.31,30.26,30.20,10,7,1,9,3,14,T,4,,97
2012-11-13,73,66,58,63,59,54,97,79,61,30.24,30.19,30.16,10,6,0,12,4,17,0.00,8,Fog,339
2012-11-14,58,55,52,54,49,46,89,83,77,30.32,30.25,30.22,10,8,4,12,5,16,0.01,8,Rain,50
2012-11-15,53,51,48,48,47,45,93,88,83,30.25,30.22,30.19,10,7,3,10,6,15,0.06,8,Rain,3
2012-11-16,56,51,46,47,46,44,93,83,72,30.28,30.25,30.22,10,7,2,8,3,20,0.00,7,,35
2012-11-17,64,55,45,43,40,35,93,69,44,30.33,30.28,30.25,10,9,6,12,5,17,0.00,3,,16
2012-11-18,70,60,50,50,46,40,74,61,47,30.31,30.26,30.21,10,10,10,12,6,17,0.00,5,,8
2012-11-19,68,61,54,54,51,46,86,72,58,30.25,30.18,30.14,10,10,10,12,4,17,0.00,7,,360
2012-11-20,71,60,48,51,49,46,93,70,47,30.17,30.10,30.04,10,9,6,12,3,16,0.00,1,,338
2012-11-21,71,56,41,50,43,38,100,67,34,30.14,30.09,30.06,10,6,0,12,2,15,0.00,0,Fog,345
2012-11-22,70,54,38,40,36,28,93,59,25,30.24,30.18,30.14,10,10,7,13,3,16,0.00,0,,4
2012-11-23,74,54,33,45,40,32,96,65,33,30.22,30.13,30.02,10,9,4,14,4,21,0.00,0,,248
2012-11-24,64,49,33,46,31,20,72,46,20,30.14,30.08,30.02,10,10,10,15,6,20,0.00,0,,315
2012-11-25,64,46,28,30,24,16,85,50,15,30.20,30.15,30.11,10,10,9,8,2,14,0.00,0,,319
2012-11-26,70,49,27,42,29,20,92,54,16,30.27,30.20,30.15,10,10,7,7,1,12,0.00,0,,280
2012-11-27,58,51,44,54,49,38,93,80,66,30.21,30.17,30.13,10,6,0,21,2,29,0.41,6,Fog-Rain,298
2012-11-28,58,50,42,52,49,41,100,86,72,30.37,30.29,30.18,8,3,0,12,4,15,0.00,7,Fog,347
2012-11-29,68,53,37,50,42,36,100,75,49,30.41,30.36,30.32,10,5,0,12,3,15,0.00,0,Fog,76
2012-11-30,74,58,42,53,48,42,100,72,44,30.36,30.31,30.25,10,10,8,10,3,14,0.00,2,,78